Regional Weather Roundup
Issued by NWS Wakefield, VA

Home | Current Version | Previous Version | Text Only | Print | Product List | Glossary On
Versions: 1 2 3 4 5 6 7 8 9 10 11 12 13 14 15 16 17 18 19 20 21 22 23 24 25 26 27 28 29 30 31 32 33 34 35 36 37 38 39 40 41 42 43 44 45 46 47 48 49 50
000
ASUS41 KAKQ 271514
RWRAKQ

REGIONAL WEATHER ROUNDUP
NATIONAL WEATHER SERVICE WAKEFIELD VA
1100 AM EDT MON APR 27 2015

Note: "fair" indicates few or no clouds below 12,000 feet with no
significant weather and/or obstructions to visibility. * = Denotes
station may not report precipitation (e.g., rain,snow,etc.),
thunder or fog.

VAZ042-051-052>054-056-271600-
NORTHERN VIRGINIA

CITY           SKY/WX    TMP DP  RH WIND       PRES   REMARKS
WASH NATIONAL  PTSUNNY   59  36  42 N9        29.80S
DULLES         PTSUNNY   55  35  47 NW12      29.81R
FORT BELVOIR   MOSUNNY   57  32  38 W14       29.80R
QUANTICO       NOT AVBL
FREDERICKSBRG* SUNNY     59  34  39 NW8       29.80S
STAFFORD*      MOSUNNY   57  32  37 W12G18    29.84S
WARRENTON      MOSUNNY   59  38  45 N7G17     29.81R
CULPEPER*      MOSUNNY   59  36  41 N12G18    29.82R
MANASSAS*      MOSUNNY   57  36  44 N14G23    29.81R
LEESBURG*      PTSUNNY   54  39  58 NW13      29.82S
WINCHESTER     PTSUNNY   54  28  37 W12       29.81S
FRONT ROYAL*   CLOUDY    54  34  47 NW8       29.81R
LURAY*         PTSUNNY   55  36  47 W12G17    29.81S
$$

VAZ048-049-060>072-079>083-271600-
CENTRAL AND SOUTH CENTRAL VIRGINIA

CITY           SKY/WX    TMP DP  RH WIND       PRES   REMARKS
RICHMOND       MOSUNNY   60  34  37 N10       29.81R
CHESTERFIELD*  FAIR      59  30  33 N9        29.82S
PETERSBURG*    SUNNY     60  32  34 N7        29.82S
HANOVER        SUNNY     58  33  39 NW10      29.82S
TAPPAHANNOCK*  SUNNY     58  28  32 N6        29.81R
QUINTON*       FAIR      58  36  43 N10G16    29.80S
CHARLOTTSVILLE SUNNY     57  32  38 N9        29.82R
GORDONSVILLE*  FAIR      56  32  40 NW8       29.81S
ORANGE*        SUNNY     59  32  36 W9        29.83S
LOUISA*        SUNNY     59  32  36 N12       29.80S
BUMPASS*       FAIR      57  33  41 N8        29.81S
FARMVILLE*     SUNNY     59  33  37 NW5       29.82S
CREWE*         FAIR      58  31  36 NE5       29.82S
FORT PICKETT*  FAIR      58  34  41 N9        29.82S
CHASE CITY*    FAIR      59  37  43 CALM      29.83S
CLARKSVILLE*   FAIR      57  37  47 N7        29.83F
SOUTH HILL*    SUNNY     57  37  46 N7        29.87S
LAWRENCEVILLE* FAIR      58  38  46 NE5       29.82R
EMPORIA*       SUNNY     57  37  47 W5        29.83R
$$

VAZ088>098-271600-
SOUTHEAST VIRGINIA

CITY           SKY/WX    TMP DP  RH WIND       PRES   REMARKS
NORFOLK        SUNNY     58  45  62 NW8       29.77R
VIRGINIA BEACH MOSUNNY   63  49  60 NW13      29.76R
NORFOLK NAVAL  MOSUNNY   63  46  54 NW9       29.80R
WEST POINT*    SUNNY     62  34  35 NW8       29.81R
SALUDA*        FAIR      57  36  45 NW9       29.79R
NEWPORT NEWS   MOSUNNY   63  41  44 N10       29.79R
LANGLEY AFB    MOSUNNY   59  39  47 N12       29.77R
FORT EUSTIS    MOSUNNY   58  40  50 N8        29.77R
WILLIAMSBURG*  SUNNY     64  43  45 N10G16    29.80R
HR EXEC AP*    FAIR      61  46  59 N7        29.80R
FRANKLIN*      SUNNY     58  44  61 NW8       29.81R
WAKEFIELD      SUNNY     60  38  43 N9        29.80R
$$

VAZ020-022-025-037-045-271600-
WEST CENTRAL AND SOUTHWEST VIRGINIA

CITY           SKY/WX    TMP DP  RH WIND       PRES   REMARKS
STAUNTON*      MOSUNNY   52  32  46 CALM      29.84S
WAYNESBORO*    FAIR      52  33  47 NW6       29.82S
HOT SPRINGS VA MOSUNNY   42  31  66 NW14G22   29.81R
LYNCHBURG      MOSUNNY   54  30  40 W7        29.85S
DANVILLE       SUNNY     60  39  45 MISG      29.85S
SOUTH BOSTON*  FAIR      58  33  39 CALM      29.84S
MARTINSVILLE   SUNNY     58  34  40 NW10G17   29.89R
ROANOKE        MOSUNNY   54  32  43 NW12G22   29.88R
BLACKSBURG     MOSUNNY   49  32  51 N12       29.92R
DUBLIN*        PTSUNNY   51  34  50 N10G18    29.92R
MARION*        PTSUNNY   49  32  51 NW7       29.95R
HILLSVILLE*    SUNNY     46  32  56 N15G23    29.89R
RICHLANDS*     FAIR      46  27  48 N7G18     29.93R
WISE*          PTSUNNY   48  30  49 NE8G20    29.94F
ABINGDON*      SUNNY     53  31  44 NE5       29.93S
$$

MDZ021>025-VAZ099-100-271600-
SOUTHERN MARYLAND AND THE DELMARVA PENINSULA

CITY           SKY/WX    TMP DP  RH WIND       PRES   REMARKS
PATUXENT RIVER MOSUNNY   57  34  41 NW9       29.78S
BAY BRIDGE APT   N/A    N/A N/A N/A N7        29.79R
LEONARDTOWN    SUNNY     55  30  38 W7        29.80S
DOVER          CLOUDY    56  38  50 NW14G20   29.71F
GEORGETOWN     SUNNY     58  34  40 N8        29.76S
EASTON         MOSUNNY   57  37  47 NW10G18   29.81S
CAMBRIDGE      SUNNY     59  34  38 NW8G16    29.77S
SALISBURY      SUNNY     58  33  39 N10       29.76S
OCEAN CITY     CLOUDY    57  33  40 NW12      29.75F
WALLOPS ISLAND MOSUNNY   57  36  45 N5        29.77S
ACCOMACK*      SUNNY     57 -15   5 N7        29.77R
$$

NCZ012>017-030>032-271600-
NORTH CENTRAL AND EASTERN NORTH CAROLINA

CITY           SKY/WX    TMP DP  RH WIND       PRES   REMARKS
ROANOKE RAPIDS FAIR      59  43  55 NW10      29.82R
RALEIGH        MOSUNNY   60  42  51 VRB5      29.85R
ELIZABETH CITY SUNNY     63  44  50 W13G20    29.78R
AHOSKIE*       SUNNY     59  44  57 CALM      29.81R
EDENTON*       SUNNY     62  47  58 W7        29.80R
CURRITUCK*     SUNNY     61  40  46 W9        29.78R
KILL DEVIL HLS SUNNY     61  43  51 W9        29.77R
MANTEO         SUNNY     60  44  54 NW13      29.79R
CAPE HATTERAS  SUNNY     59  42  53 N9        29.78R
TARBORO*       FAIR      62  47  56 W10G17    29.82S
GOLDSBORO      SUNNY     62  45  52 NW8       29.81R
WASHINGTON     SUNNY     61  46  57 W6        29.81R
GREENVILLE     SUNNY     63  45  51 NW7       29.84S
NEW BERN       SUNNY     64  41  42 NW8       29.82S
WILMINGTON     SUNNY     63  44  50 N9        29.82S
$$

VAZ048-271600-
ELSEWHERE

CITY           SKY/WX    TMP DP  RH WIND       PRES   REMARKS
HARRISBURG PA  MOSUNNY   55  34  45 NW12      29.77R
BALTIMORE      PTSUNNY   54  33  45 W9        29.78S
ANNAPOLIS      CLOUDY    54  33  45 NW10      29.78S
ANDREWS AFB    MOSUNNY   56  35  44 N9G18     29.78R
PHILADELPHIA   PTSUNNY   57  34  41 NW10G20   29.74S
HENDERSON NC   SUNNY     57  37  47 NE6       29.84S
GREENSBORO     MOSUNNY   60  34  37 NW14      29.86R
ROCKY MOUNT    SUNNY     62  47  57 W8        29.82R
$$

VAZ100-271600-
MARINE

STATION/POSITION TIME  TEMP    WIND        PRES    WAVE   SWELL
                       AIR SEA DIR/SP/G            HT/PER HT/PER
                 (UTC) (F)     (DEG/KT/KT) (MB)    (FT/S) (FT/S)
BRANDYWINE LGT   1400   51 52  330/  9/ 12 1007.5R
CAPE MAY NJ      1400   54 55  310/ 12/ 14 1006.8R
LEWES DE         1400   52 52  330/ 12/ 13 1007.5R
15NM E FENWICK I 1450   50 47              1007.2R   2/ 8
OCEAN-CITY-INLET 1400   53 51  360/  8/ 11 1007.2R
WACHAPREAGUE VA  1400   55 55   50/  9/ 13 1007.7R
THOMAS POINT MD  1500   53 53  350/ 10/ 11 1009.1S
GOOSES REEF MD   1500   53 53   40/  6/  8   N/A     1/ 2
COVE POINT MD    1400   51     350/  9/ 10 1009.2R
SOLOMONS ISLAND  1400      55                N/A
BISHOPS HEAD MD  1400   55 55   20/  7/ 10 1007.7R
PINEY POINT MD   1400          350/ 10/ 12   N/A
CAMBRIDGE MD     1400   54 58  330/  7/  9 1008.1R
LEWISETTA VA     1400   54 57              1008.3R
RAPPAHANNOCK LGT 1400           10/ 15/ 16 1008.5R
YORK RVR RNG VA  1400   55      20/ 15/ 16 1007.3R
YORKTOWN VA      1400   55 59  360/  8/ 12 1007.8R
JAMESTOWN VA     1500   57 63  360/ 10/ 14 1008.0R
DOMINION TERM VA 1400   54     300/ 10/ 12 1007.9R
KIPTOPEKE VA     1400      61  320/ 11/ 12   N/A
CHES BAY BRIDGE  1400   53 57  300/  9/ 11 1007.4R
CAPE HENRY VA    1400   53     310/ 12/ 14 1006.5R
CHESAPEAKE LGHT  1400   55     310/ 10/ 11 1008.4R
WILLOUBY STN VA  1400   55     330/  5/  6 1008.4R
S CRANEY ISL VA  1400          300/  6/ 10 1007.8R
CAPE HENRY BUOY  1428      51                N/A     2/ 7
OFFSHORE WE BUOY 1411      51                N/A     3/ 7   3/ 7
64NM E OF VA BCH 1450   54 56  280/ 10/ 12 1007.1R   3/ 7   3/ 7
DUCK PIER NC     1400   58 54  310/  9/ 12 1006.7R
44056 DUCK FRF   1411      55                N/A     3/ 8
OREGON INLET NC  1400   59 54  310/  9/ 12 1007.8R
HATTERAS NC      1400   57 61  340/ 14/ 16 1007.8R
DIAMOND SHLS NC  1450   58 74  350/ 17/ 21 1008.2R   6/10   5/10
CAPE LOOKOUT NC  1500   60     330/  9/ 11 1009.0R
$$



USA.gov is the U.S. government's official web portal to all federal, state and local government web resources and services.